Weather Service Report


260 
ASUS43 KFSD 061202
RWRFSD

WEATHER ROUNDUP FOR SE SOUTH DAKOTA/SW MINNESOTA/NW IOWA
NATIONAL WEATHER SERVICE SIOUX FALLS SD
700 AM CDT FRI MAY 06 2016

NOTE: "FAIR" INDICATES FEW OR NO CLOUDS BELOW 12,000 FEET WITH NO
SIGNIFICANT WEATHER AND OR OBSTRUCTIONS TO VISIBILITY.


SDZ038>040-050-052>070-061300-
SOUTHEAST SOUTH DAKOTA
  
CITY           SKY/WX    TMP DP  RH WIND       PRES   REMARKS
CHAMBERLAIN    NOT AVBL                                               
HURON          CLEAR     60  50  69 S14       29.81S                  
6HR MIN TEMP:  59; 6HR MAX TEMP:  63;                                

MADISON        FAIR      59  46  63 SW16G23   29.89S                  
MITCHELL       NOT AVBL                                               
SIOUX FALLS    NOT AVBL                                               
$$

MNZ071-072-080-081-089-090-097-098-061300-
SOUTHWEST MINNESOTA
  
CITY           SKY/WX    TMP DP  RH WIND       PRES   REMARKS
JACKSON        CLEAR     55  39  54 SW12      29.94S                  
LUVERNE        CLOUDY    48  41  76 S6        29.93S                  
MARSHALL       NOT AVBL                                               
MONTEVIDEO     CLOUDY    59  45  58 SW6       29.84F                  
PIPESTONE      CLOUDY    55  45  67 S9        29.90F                  
TRACY          CLOUDY    63  45  52 SW20      29.88S                  
WINDOM         CLEAR     59  43  55 SW9       29.92S                  
$$

IAZ001>003-012>014-020>022-031-032-NEZ013-014-SDZ071-061300-
NORTHWEST IOWA
  
CITY           SKY/WX    TMP DP  RH WIND       PRES   REMARKS
DENISON        CLEAR     54  43  66 CALM      29.98R                  
SIOUX CITY     NOT AVBL                                               
SPENCER        NOT AVBL                                               
STORM LAKE     CLEAR     55  43  62 SW8       29.98R                  
$$
 
ABBREVIATIONS USED IN REMARKS
   TC - TEMPERATURE IN CELSIUS
  WCI - WIND CHILL INDEX
   HX - HEAT INDEX
  VSB - VISIBILITY

  


261 
ASUS43 KFSD 061202
RWRSD 

WEATHER ROUNDUP FOR SOUTH DAKOTA
NATIONAL WEATHER SERVICE SIOUX FALLS SD
700 AM CDT FRI MAY 06 2016

NOTE: "FAIR" INDICATES FEW OR NO CLOUDS BELOW 12,000 FEET WITH NO
SIGNIFICANT WEATHER AND/OR OBSTRUCTIONS TO VISIBILITY.


SDZ001>005-009-010-012>017-061300-
NORTHWEST AND NORTH CENTRAL SOUTH DAKOTA
  
CITY           SKY/WX    TMP DP  RH WIND       PRES   REMARKS
BUFFALO          N/A     59  43  55 NW6       29.81R                  
FAITH            N/A     53  42  66 W6        29.83R                  
$$
 
SDZ012>016-024>037-041>051-057-063-072>074-061300-
SOUTHWEST AND SOUTH CENTRAL SOUTH DAKOTA
  
CITY           SKY/WX    TMP DP  RH WIND       PRES   REMARKS
RAPID CTY ARPT CLOUDY    51  40  65 CALM      29.87R                  
PIERRE         NOT AVBL                                               
CUSTER         CLOUDY    49  33  54 NW6       30.00S                  
ELLSWORTH AFB  CLOUDY    52  42  67 NW5       29.86R                  
PHILIP         CLEAR     49  45  86 CALM      29.83R                  
PINE RIDGE     CLEAR     52  45  77 SW5       29.91R                  
$$
 
SDZ004>011-016>023-039-040-061300-
NORTHEAST SOUTH DAKOTA
  
CITY           SKY/WX    TMP DP  RH WIND       PRES   REMARKS
ABERDEEN       NOT AVBL                                               
WATERTOWN      NOT AVBL                                               
SISSETON         N/A     67  47  48 SW20G26   29.75S                  
$$
 
SDZ017-020-022-023-036>040-048>070-061300-
SOUTHEAST SOUTH DAKOTA
  
CITY           SKY/WX    TMP DP  RH WIND       PRES   REMARKS
SIOUX FALLS    NOT AVBL                                               
HURON          CLEAR     60  50  69 S14       29.81S                  
$$
 
ABBREVIATIONS USED IN REMARKS
   TC - TEMPERATURE IN CELSIUS
  WCI - WIND CHILL INDEX
   HX - HEAT INDEX
  VSB - VISIBILITY

  

Return to Home page


Western Regional Climate Center, wrcc@dri.edu